Weather History for Farmingdale, NY

Change the Weather History Date:

Wednesday, December 4, 2013

  Actual Average Record
Temperature  
Mean Temperature 42 °F -  
Max Temperature 50 °F 45 °F 60 °F (1999)
Min Temperature 33 °F 32 °F 18 °F (2002)
Degree Days  
Heating Degree Days 24    
Moisture  
Dew Point 37 °F    
Average Humidity 80    
Maximum Humidity 93    
Minimum Humidity 57    
Precipitation  
Precipitation 0.00 in - - ()
Sea Level Pressure  
Sea Level Pressure 30.11 in    
Wind  
Wind Speed 2 mph (East)    
Max Wind Speed 7 mph    
Max Gust Speed -    
Visibility 7 miles    
Events      
Averages and records for this station are not official NWS values.
T = Trace of Precipitation, MM = Missing Value Source: NWS Daily Summary

Daily Weather History Graph

Daily Weather History Graph

Search for Another Location

Airport:

Trip Planner

Search our weather history database for the weather conditions in past years. The results will help you decide how hot, cold, wet, or windy it might be!

Date:

Astronomy

Dec. 04, 2013 Rise Set
Actual Time 7:01 AM EST 4:26 PM EST
Civil Twilight 6:31 AM EST 4:56 PM EST
Nautical Twilight 5:56 AM EST 5:30 PM EST
Astronomical Twilight 5:23 AM EST 6:04 PM EST
Moon 8:26 AM EST (12/4) 6:33 PM EST (12/4)
Length of Visible Light 10h 25m
Length of Day
9h 24m
Waxing Crescent, 4% of the Moon is Illuminated
Dec 4
Waxing Crescent
Dec 9
First Quarter
Dec 17
Full
Dec 25
Last Quarter
Jan 1
New

Hourly Weather History & Observations

Time (EST) Temp. Windchill Dew Point Humidity Pressure Visibility Wind Dir Wind Speed Gust Speed Precip Events Conditions
12:53 AM 37.0 °F - 33.1 °F 86% 30.03 in 7.0 mi Calm Calm - N/A   Clear
1:53 AM 35.1 °F 32.2 °F 30.9 °F 85% 30.04 in 6.0 mi North 3.5 mph - N/A   Clear
2:53 AM 35.1 °F - 32.0 °F 89% 30.05 in 7.0 mi Calm Calm - N/A   Clear
3:53 AM 33.1 °F - 30.9 °F 92% 30.06 in 7.0 mi Calm Calm - N/A   Clear
4:53 AM 35.1 °F - 30.9 °F 85% 30.06 in 7.0 mi Calm Calm - N/A   Clear
5:53 AM 37.0 °F - 33.1 °F 86% 30.09 in 8.0 mi Calm Calm - N/A   Scattered Clouds
6:53 AM 36.0 °F - 33.1 °F 89% 30.11 in 8.0 mi Calm Calm - N/A   Partly Cloudy
7:53 AM 37.0 °F 34.5 °F 33.1 °F 86% 30.12 in 6.0 mi North 3.5 mph - N/A   Clear
8:53 AM 39.9 °F - 34.0 °F 79% 30.12 in 8.0 mi Calm Calm - N/A   Clear
9:53 AM 44.1 °F 42.5 °F 35.1 °F 71% 30.12 in 8.0 mi East 3.5 mph - N/A   Clear
10:53 AM 46.9 °F - 35.1 °F 63% 30.14 in 8.0 mi Calm Calm - N/A   Clear
11:53 AM 50.0 °F - 35.1 °F 57% 30.12 in 8.0 mi Calm Calm - N/A   Clear
12:53 PM 48.9 °F - 36.0 °F 61% 30.11 in 9.0 mi SSW 4.6 mph - N/A   Partly Cloudy
1:53 PM 48.9 °F - 37.9 °F 66% 30.09 in 8.0 mi SSE 6.9 mph - N/A   Overcast
2:53 PM 48.0 °F - 39.0 °F 71% 30.10 in 9.0 mi SSE 4.6 mph - N/A   Overcast
3:53 PM 48.0 °F - 39.9 °F 74% 30.12 in 8.0 mi SSE 3.5 mph - N/A   Overcast
4:53 PM 46.0 °F 44.8 °F 39.0 °F 76% 30.11 in 9.0 mi ESE 3.5 mph - N/A   Mostly Cloudy
5:53 PM 45.0 °F - 39.0 °F 80% 30.14 in 8.0 mi Calm Calm - N/A   Clear
6:53 PM 45.0 °F - 39.9 °F 82% 30.15 in 8.0 mi Calm Calm - N/A   Overcast
7:53 PM 45.0 °F 43.5 °F 39.9 °F 82% 30.15 in 7.0 mi East 3.5 mph - N/A   Partly Cloudy
8:53 PM 45.0 °F 43.5 °F 41.0 °F 86% 30.15 in 7.0 mi ENE 3.5 mph - N/A   Mostly Cloudy
9:53 PM 45.0 °F 42.6 °F 42.1 °F 90% 30.14 in 6.0 mi East 4.6 mph - N/A   Scattered Clouds
10:53 PM 46.0 °F 44.8 °F 43.0 °F 89% 30.15 in 5.0 mi ENE 3.5 mph - N/A   Mostly Cloudy
11:15 PM 46.4 °F 44.3 °F 44.6 °F 93% 30.15 in 4.0 mi East 4.6 mph - N/A   Overcast
11:53 PM 48.0 °F - 46.0 °F 93% 30.14 in 4.0 mi East 4.6 mph - N/A   Overcast